Time,TemperatureF,DewpointF,PressureIn,WindDirection,WindDirectionDegrees,WindSpeedMPH,WindSpeedGustMPH,Humidity,HourlyPrecipIn,Conditions,Clouds,dailyrainin,SoftwareType,DateUTC
2013-04-15 00:10:00,66.2,65.0,29.78,South,187,2.0,5.0,95,0.00,,,0.00,weatherlink.com 1.10,2013-04-15 05:10:00,
2013-04-15 00:25:00,66.2,65.0,29.78,SW,217,3.0,5.0,95,0.00,,,0.00,weatherlink.com 1.10,2013-04-15 05:25:00,
2013-04-15 00:40:00,66.2,65.0,29.78,SW,218,2.0,3.0,95,0.00,,,0.00,weatherlink.com 1.10,2013-04-15 05:40:00,
2013-04-15 00:55:00,65.8,64.0,29.78,SSE,158,0.0,0.0,95,0.00,,,0.00,weatherlink.com 1.10,2013-04-15 05:55:00,
2013-04-15 01:10:00,65.6,64.0,29.78,SSE,148,3.0,3.0,96,0.00,,,0.00,weatherlink.com 1.10,2013-04-15 06:10:00,
2013-04-15 01:25:00,65.6,64.0,29.78,SSE,147,0.0,2.0,96,0.00,,,0.00,weatherlink.com 1.10,2013-04-15 06:25:00,
2013-04-15 01:40:00,65.4,64.0,29.78,SSE,147,0.0,0.0,96,0.00,,,0.00,weatherlink.com 1.10,2013-04-15 06:40:00,
2013-04-15 01:55:00,65.4,64.0,29.78,SW,226,0.0,0.0,96,0.00,,,0.00,weatherlink.com 1.10,2013-04-15 06:55:00,
2013-04-15 02:43:00,65.4,65.0,29.77,SE,129,1.0,1.0,97,0.00,,,0.00,weatherlink.com 1.10,2013-04-15 07:43:00,
2013-04-15 02:58:00,65.9,65.0,29.78,SW,219,2.0,4.0,97,0.00,,,0.00,weatherlink.com 1.10,2013-04-15 07:58:00,
2013-04-15 03:13:00,66.0,65.0,29.78,SSE,162,1.0,3.0,97,0.00,,,0.00,weatherlink.com 1.10,2013-04-15 08:13:00,
2013-04-15 03:28:00,65.9,65.0,29.78,South,177,3.0,3.0,97,0.00,,,0.00,weatherlink.com 1.10,2013-04-15 08:28:00,
2013-04-15 03:43:00,65.8,65.0,29.78,SSE,153,2.0,4.0,97,0.00,,,0.00,weatherlink.com 1.10,2013-04-15 08:43:00,
2013-04-15 03:59:00,66.1,66.0,29.79,SSE,150,4.0,4.0,98,0.00,,,0.00,weatherlink.com 1.10,2013-04-15 08:59:00,
2013-04-15 04:14:00,66.5,66.0,29.79,SSE,148,1.0,8.0,97,0.00,,,0.00,weatherlink.com 1.10,2013-04-15 09:14:00,
2013-04-15 04:29:00,66.3,65.0,29.79,South,176,0.0,3.0,97,0.00,,,0.00,weatherlink.com 1.10,2013-04-15 09:29:00,
2013-04-15 04:43:00,66.0,65.0,29.79,SSE,157,1.0,1.0,97,0.01,,,0.01,weatherlink.com 1.10,2013-04-15 09:43:00,
2013-04-15 04:58:00,65.8,65.0,29.79,SSW,204,1.0,3.0,97,0.01,,,0.01,weatherlink.com 1.10,2013-04-15 09:58:00,
2013-04-15 05:13:00,65.9,65.0,29.80,SSW,201,0.0,3.0,97,0.01,,,0.01,weatherlink.com 1.10,2013-04-15 10:13:00,
2013-04-15 05:28:00,65.7,65.0,29.80,SSW,196,0.0,1.0,97,0.01,,,0.01,weatherlink.com 1.10,2013-04-15 10:28:00,
2013-04-15 05:43:00,65.0,64.0,29.80,SSW,197,0.0,0.0,97,0.00,,,0.01,weatherlink.com 1.10,2013-04-15 10:43:00,
2013-04-15 05:59:00,64.5,64.0,29.81,SSW,197,0.0,0.0,97,0.00,,,0.01,weatherlink.com 1.10,2013-04-15 10:59:00,
2013-04-15 06:14:00,64.8,64.0,29.81,ESE,114,0.0,1.0,98,0.00,,,0.01,weatherlink.com 1.10,2013-04-15 11:14:00,
2013-04-15 06:29:00,65.1,65.0,29.81,NE,51,0.0,1.0,98,0.00,,,0.01,weatherlink.com 1.10,2013-04-15 11:29:00,
2013-04-15 06:44:00,64.7,64.0,29.82,NE,51,0.0,0.0,98,0.00,,,0.01,weatherlink.com 1.10,2013-04-15 11:44:00,
2013-04-15 06:59:00,65.0,64.0,29.83,NE,51,0.0,0.0,98,0.00,,,0.01,weatherlink.com 1.10,2013-04-15 11:59:00,
2013-04-15 07:15:00,64.9,64.0,29.83,NE,53,0.0,0.0,98,0.00,,,0.01,weatherlink.com 1.10,2013-04-15 12:15:00,
2013-04-15 07:31:00,66.2,66.0,29.83,ESE,103,0.0,1.0,98,0.00,,,0.01,weatherlink.com 1.10,2013-04-15 12:31:00,
2013-04-15 08:01:00,68.8,68.0,29.84,SSW,204,1.0,3.0,96,0.00,,,0.01,weatherlink.com 1.10,2013-04-15 13:01:00,
2013-04-15 08:17:00,69.7,68.0,29.84,SSE,166,2.0,4.0,94,0.00,,,0.01,weatherlink.com 1.10,2013-04-15 13:17:00,
2013-04-15 08:32:00,71.2,68.0,29.85,SW,235,1.0,4.0,90,0.00,,,0.01,weatherlink.com 1.10,2013-04-15 13:32:00,
2013-04-15 08:47:00,72.5,69.0,29.86,SE,138,1.0,4.0,88,0.00,,,0.01,weatherlink.com 1.10,2013-04-15 13:47:00,
2013-04-15 09:18:00,73.3,69.0,29.85,SW,233,6.0,10.0,85,0.00,,,0.01,weatherlink.com 1.10,2013-04-15 14:18:00,
2013-04-15 09:33:00,73.7,68.0,29.86,South,186,9.0,12.0,82,0.00,,,0.01,weatherlink.com 1.10,2013-04-15 14:33:00,
2013-04-15 09:48:00,74.3,68.0,29.87,SSW,212,8.0,11.0,82,0.00,,,0.01,weatherlink.com 1.10,2013-04-15 14:48:00,
2013-04-15 10:03:00,74.7,69.0,29.87,SW,228,4.0,11.0,82,0.00,,,0.01,weatherlink.com 1.10,2013-04-15 15:03:00,
2013-04-15 10:18:00,76.4,69.0,29.88,SSW,198,4.0,11.0,79,0.00,,,0.01,weatherlink.com 1.10,2013-04-15 15:18:00,
2013-04-15 10:34:00,77.3,70.0,29.87,SE,146,5.0,10.0,78,0.00,,,0.01,weatherlink.com 1.10,2013-04-15 15:34:00,
2013-04-15 10:49:00,77.7,69.0,29.87,SW,214,8.0,16.0,74,0.00,,,0.01,weatherlink.com 1.10,2013-04-15 15:49:00,
2013-04-15 11:04:00,78.9,69.0,29.88,SSE,160,2.0,12.0,71,0.00,,,0.01,weatherlink.com 1.10,2013-04-15 16:04:00,
2013-04-15 11:19:00,79.7,69.0,29.88,SSW,198,4.0,13.0,70,0.00,,,0.01,weatherlink.com 1.10,2013-04-15 16:19:00,
2013-04-15 11:34:00,80.2,69.0,29.88,SW,224,11.0,11.0,69,0.00,,,0.01,weatherlink.com 1.10,2013-04-15 16:34:00,
2013-04-15 11:49:00,81.0,69.0,29.88,SW,219,9.0,11.0,67,0.00,,,0.01,weatherlink.com 1.10,2013-04-15 16:49:00,
2013-04-15 12:05:00,81.0,69.0,29.87,SW,218,12.0,12.0,67,0.00,,,0.01,weatherlink.com 1.10,2013-04-15 17:05:00,
2013-04-15 12:35:00,81.9,71.0,29.86,SW,225,10.0,14.0,70,0.00,,,0.01,weatherlink.com 1.10,2013-04-15 17:35:00,
2013-04-15 12:51:00,82.8,71.0,29.86,South,185,9.0,10.0,68,0.00,,,0.01,weatherlink.com 1.10,2013-04-15 17:51:00,
2013-04-15 13:06:00,83.2,68.0,29.86,SW,217,11.0,13.0,60,0.00,,,0.01,weatherlink.com 1.10,2013-04-15 18:06:00,
2013-04-15 13:36:00,81.5,68.0,29.86,SSE,149,9.0,15.0,63,0.00,,,0.01,weatherlink.com 1.10,2013-04-15 18:36:00,
2013-04-15 13:51:00,82.2,67.0,29.86,SE,145,11.0,15.0,60,0.00,,,0.01,weatherlink.com 1.10,2013-04-15 18:51:00,
2013-04-15 14:06:00,82.3,68.0,29.85,SSE,156,6.0,16.0,61,0.00,,,0.01,weatherlink.com 1.10,2013-04-15 19:06:00,
2013-04-15 14:21:00,83.1,68.0,29.84,SE,141,8.0,14.0,61,0.00,,,0.01,weatherlink.com 1.10,2013-04-15 19:21:00,
2013-04-15 14:36:00,82.5,70.0,29.84,SW,217,6.0,18.0,65,0.00,,,0.01,weatherlink.com 1.10,2013-04-15 19:36:00,
2013-04-15 15:07:00,81.7,72.0,29.84,SSE,153,5.0,13.0,72,0.00,,,0.01,weatherlink.com 1.10,2013-04-15 20:07:00,
2013-04-15 15:22:00,81.1,72.0,29.83,SE,131,8.0,18.0,74,0.00,,,0.01,weatherlink.com 1.10,2013-04-15 20:22:00,
2013-04-15 15:36:00,81.5,73.0,29.83,ESE,117,6.0,12.0,75,0.00,,,0.01,weatherlink.com 1.10,2013-04-15 20:36:00,
2013-04-15 15:51:00,80.8,72.0,29.83,SW,218,11.0,14.0,75,0.00,,,0.01,weatherlink.com 1.10,2013-04-15 20:51:00,
2013-04-15 16:06:00,79.4,72.0,29.83,South,181,7.0,14.0,79,0.00,,,0.01,weatherlink.com 1.10,2013-04-15 21:06:00,
2013-04-15 16:21:00,79.0,72.0,29.83,SSW,207,7.0,12.0,79,0.00,,,0.01,weatherlink.com 1.10,2013-04-15 21:21:00,
2013-04-15 16:36:00,78.1,72.0,29.83,SW,219,8.0,15.0,81,0.00,,,0.01,weatherlink.com 1.10,2013-04-15 21:36:00,
2013-04-15 16:51:00,77.2,72.0,29.83,SW,226,8.0,12.0,83,0.00,,,0.01,weatherlink.com 1.10,2013-04-15 21:51:00,
2013-04-15 17:06:00,76.2,71.0,29.83,SW,232,8.0,13.0,85,0.00,,,0.01,weatherlink.com 1.10,2013-04-15 22:06:00,
2013-04-15 17:36:00,74.9,71.0,29.84,ESE,121,2.0,14.0,87,0.00,,,0.01,weatherlink.com 1.10,2013-04-15 22:36:00,
2013-04-15 17:51:00,74.6,71.0,29.83,SW,221,8.0,12.0,89,0.00,,,0.01,weatherlink.com 1.10,2013-04-15 22:51:00,
2013-04-15 18:06:00,74.6,71.0,29.83,SSW,211,8.0,8.0,89,0.00,,,0.01,weatherlink.com 1.10,2013-04-15 23:06:00,
2013-04-15 18:20:00,74.2,71.0,29.83,SW,214,5.0,9.0,90,0.00,,,0.01,weatherlink.com 1.10,2013-04-15 23:20:00,
2013-04-15 18:35:00,74.3,71.0,29.84,SSW,195,5.0,7.0,90,0.00,,,0.01,weatherlink.com 1.10,2013-04-15 23:35:00,
2013-04-15 18:50:00,74.5,71.0,29.84,SW,218,6.0,8.0,89,0.00,,,0.01,weatherlink.com 1.10,2013-04-15 23:50:00,
2013-04-15 19:05:00,74.6,71.0,29.84,SW,224,3.0,7.0,90,0.00,,,0.01,weatherlink.com 1.10,2013-04-16 00:05:00,
2013-04-15 19:20:00,74.5,71.0,29.84,SSW,212,3.0,7.0,90,0.00,,,0.01,weatherlink.com 1.10,2013-04-16 00:20:00,
2013-04-15 19:35:00,74.4,71.0,29.84,South,186,2.0,8.0,90,0.00,,,0.01,weatherlink.com 1.10,2013-04-16 00:35:00,
2013-04-15 19:50:00,74.5,71.0,29.84,SSW,207,2.0,6.0,90,0.00,,,0.01,weatherlink.com 1.10,2013-04-16 00:50:00,
2013-04-15 20:05:00,74.4,71.0,29.85,SW,215,4.0,6.0,90,0.00,,,0.01,weatherlink.com 1.10,2013-04-16 01:05:00,
2013-04-15 20:20:00,74.2,71.0,29.86,South,169,1.0,5.0,91,0.00,,,0.01,weatherlink.com 1.10,2013-04-16 01:20:00,
2013-04-15 20:35:00,74.2,71.0,29.86,South,190,2.0,7.0,91,0.00,,,0.01,weatherlink.com 1.10,2013-04-16 01:35:00,
2013-04-15 20:50:00,74.1,71.0,29.86,SSE,156,3.0,5.0,91,0.00,,,0.01,weatherlink.com 1.10,2013-04-16 01:50:00,
2013-04-15 21:05:00,74.1,72.0,29.87,SSE,155,1.0,4.0,92,0.00,,,0.01,weatherlink.com 1.10,2013-04-16 02:05:00,
2013-04-15 21:20:00,74.3,72.0,29.87,SSE,155,0.0,4.0,92,0.00,,,0.01,weatherlink.com 1.10,2013-04-16 02:20:00,
2013-04-15 21:35:00,74.5,72.0,29.88,SSE,167,1.0,3.0,92,0.00,,,0.01,weatherlink.com 1.10,2013-04-16 02:35:00,
2013-04-15 21:49:00,74.9,72.0,29.88,SE,143,1.0,4.0,92,0.00,,,0.01,weatherlink.com 1.10,2013-04-16 02:49:00,
2013-04-15 22:05:00,75.1,73.0,29.89,SSE,156,1.0,4.0,92,0.00,,,0.01,weatherlink.com 1.10,2013-04-16 03:05:00,
2013-04-15 22:20:00,75.3,72.0,29.89,SSE,153,1.0,8.0,91,0.00,,,0.01,weatherlink.com 1.10,2013-04-16 03:20:00,
2013-04-15 22:35:00,75.3,72.0,29.89,SE,142,1.0,8.0,91,0.00,,,0.01,weatherlink.com 1.10,2013-04-16 03:35:00,
2013-04-15 22:50:00,75.4,72.0,29.89,ESE,110,3.0,10.0,90,0.00,,,0.01,weatherlink.com 1.10,2013-04-16 03:50:00,
2013-04-15 23:05:00,75.4,72.0,29.89,South,172,8.0,8.0,89,0.00,,,0.01,weatherlink.com 1.10,2013-04-16 04:05:00,
2013-04-15 23:19:00,75.4,72.0,29.89,ENE,77,3.0,6.0,90,0.00,,,0.01,weatherlink.com 1.10,2013-04-16 04:19:00,
2013-04-15 23:34:00,75.1,72.0,29.89,SW,228,2.0,11.0,91,0.00,,,0.01,weatherlink.com 1.10,2013-04-16 04:34:00,
2013-04-15 23:49:00,75.1,72.0,29.89,SE,145,6.0,13.0,91,0.00,,,0.01,weatherlink.com 1.10,2013-04-16 04:49:00,